Home   Weather   Nuuk   Past weeks

Flag for Greenland Past Weather in Nuuk, Greenland — Yesterday and Last 2 Weeks

Now
45 °F

Partly sunny.


Feels Like: 41 °F
Forecast: 45 / 56 °F
Wind: 7 mph from North

Location: Godthaab / Nuuk

Current Time: Jul 23, 2017 at 7:04:58 am

Latest Report: Jul 23, 2017 at 5:50 am


Visibility: N/A

Pressure: 29.80 "Hg

Humidity: 87%

Dew Point: 41 °F

Location of NuukLocation

Past Weather in Nuuk — Graph

°F

Nuuk Temperature Yesterday

Maximum temperature yesterday: 52 °F (at 11:50 am)
Minimum temperature yesterday: 43 °F (at 4:50 am)
Average temperature yesterday: 48 °F

High & Low Weather Summary for the Past Weeks

 TemperatureHumidityPressure
High63 °F (Jul 9, 3:50 pm)100% (Jul 8, 4:50 am)30.04 "Hg (Jul 8, 4:50 am)
Low36 °F (Jul 20, 4:50 am)41% (Jul 10, 9:50 pm)29.18 "Hg (Jul 16, 12:50 am)
Average46 °F79%29.61 "Hg
* Reported Jul 8 4:50 am — Jul 23 4:50 am, Nuuk. Weather by CustomWeather, © 2017

Note: Actual official high and low records may vary slightly from our data, if they occured in-between our weather recording intervals... More about our weather records

Advertising

Nuuk Weather History for the Previous 24 Hours

Scroll right to see more
 ConditionsComfort  
Time TempWeatherWind HumidityBarometerVisibility
4:50 am
Sun, Jul 23
45 °FPartly sunny.7 mph81%29.80 "HgN/A
3:50 am46 °FPassing clouds.8 mph76%29.80 "HgN/A
2:50 am46 °FPassing clouds.9 mph71%29.80 "HgN/A
1:50 am46 °FPassing clouds.7 mph76%29.83 "HgN/A
12:50 am46 °FPassing clouds.7 mph76%29.83 "HgN/A
11:50 pm
Sat, Jul 22
48 °FOvercast.8 mph62%29.83 "HgN/A
10:50 pm46 °FOvercast.6 mph66%29.83 "HgN/A
9:50 pm45 °FPartly sunny.2 mph87%29.83 "HgN/A
8:50 pm46 °FPartly sunny.5 mph76%29.83 "HgN/A
7:50 pm45 °FPartly sunny.10 mph87%29.83 "HgN/A
6:50 pm46 °FPartly sunny.13 mph82%29.83 "HgN/A
5:50 pm48 °FFog.14 mph76%29.83 "HgN/A
4:50 pm50 °FPassing clouds.13 mph71%29.80 "HgN/A
3:50 pm48 °FFog.14 mph76%29.80 "HgN/A
2:50 pm50 °FFog.15 mph71%29.80 "HgN/A
1:50 pm52 °FPassing clouds.12 mph72%29.77 "HgN/A
12:50 pm52 °FPassing clouds.9 mph67%29.77 "HgN/A
11:50 am52 °FPassing clouds.13 mph67%29.77 "HgN/A
10:50 am50 °FPassing clouds.9 mph71%29.77 "HgN/A
9:50 am50 °FPassing clouds.7 mph71%29.77 "HgN/A
8:50 am50 °FPassing clouds.5 mph67%29.74 "HgN/A
7:50 am50 °FPassing clouds.2 mph67%29.74 "HgN/A
Weather by CustomWeather, © 2017

See weather overviewHow to use our weather pages